Change the Weather History Date:

Monday, September 23, 2013

  Actual Average (EGNV) Record (EGNV)
Temperature  
Mean Temperature 54 °F -  
Max Temperature 66 °F 58 °F 73 °F (2000)
Min Temperature 42 °F 45 °F 35 °F (2012)
Degree Days  
Heating Degree Days 11    
Growing Degree Days 4 (Base 50)    
Moisture  
Dew Point 52 °F    
Average Humidity 89    
Maximum Humidity 100    
Minimum Humidity 65    
Precipitation  
Precipitation 0.00 in 0.07 in - ()
Sea Level Pressure  
Sea Level Pressure 30.23 in    
Wind  
Wind Speed 4 mph ()    
Max Wind Speed 12 mph    
Max Gust Speed -    
Visibility 5.5 miles    
Events Fog    
Averages and records for this station are not official NWS values.
T = Trace of Precipitation, MM = Missing Value Source: Averaged Metar Reports

Daily Weather History Graph

Daily Weather History Graph

Search for Another Location

Airport or City:

Trip Planner

Search our weather history database for the weather conditions in past years. The results will help you decide how hot, cold, wet, or windy it might be!

Date:

Astronomy

Sep. 23, 2013 Rise Set
Actual Time 6:53 AM BST 7:02 PM BST
Civil Twilight 6:18 AM BST 7:37 PM BST
Nautical Twilight 5:35 AM BST 8:19 PM BST
Astronomical Twilight 4:51 AM BST 9:03 PM BST
Moon 8:40 PM BST (9/23) 11:40 AM BST (9/23)
Length of Visible Light 13h 19m
Length of Day
12h 08m
Waning Gibbous, 83% of the Moon is Illuminated
Sep 23
Waning Gibbous
Sep 27
Last Quarter
Oct 5
New
Oct 12
First Quarter
Oct 19
Full

Hourly Weather History & Observations

Time (BST) Temp. Windchill Dew Point Humidity Pressure Visibility Wind Dir Wind Speed Gust Speed Precip Events Conditions
12:50 AM 49 °F - 49 °F 98% 30.32 in 7 mi SE 2.3 mph - -   Scattered Clouds
12:50 AM 48.2 °F - 48.2 °F 100% 30.30 in 6.2 mi SE 2.3 mph - N/A   Mostly Cloudy
1:50 AM 48.2 °F - 48.2 °F 100% 30.30 in 0.9 mi ENE 1.2 mph - N/A   Unknown
2:50 AM 44.6 °F 43.1 °F 44.6 °F 100% 30.30 in 5.6 mi West 3.5 mph - N/A   Unknown
3:50 AM 45 °F - 44 °F 96% 30.30 in 7 mi SE 2.3 mph - - Fog Fog
3:50 AM 44.6 °F - 44.6 °F 100% 30.30 in 6.2 mi SE 2.3 mph - N/A   Unknown
4:50 AM 44.6 °F 43.1 °F 44.6 °F 100% 30.30 in 0.4 mi South 3.5 mph - N/A Fog Fog
5:50 AM 46.4 °F - 46.4 °F 100% 30.30 in - SSW 2.3 mph - N/A   Clear
6:50 AM 42 °F - 42 °F 100% 30.30 in 1 mi South 1.2 mph - - Fog Patches of Fog
6:50 AM 42.8 °F - 42.8 °F 100% 30.27 in 6.2 mi South 1.2 mph - N/A Fog Patches of Fog
7:19 AM 42.8 °F - 42.8 °F 100% 30.27 in 6.2 mi East 1.2 mph - N/A Fog Shallow Fog
7:38 AM 42.8 °F - 42.8 °F 100% 30.27 in 0.2 mi South 2.3 mph - N/A Fog Fog
7:50 AM 46.4 °F - 46.4 °F 100% 30.27 in 0.1 mi South 2.3 mph - N/A Fog Fog
8:50 AM 50.0 °F - 50.0 °F 100% 30.27 in 0.5 mi ENE 2.3 mph - N/A Fog Fog
9:50 AM 55 °F - 52 °F 85% 30.29 in 1 mi SE 2.3 mph - - Fog Light Fog
9:50 AM 55.4 °F - 51.8 °F 88% 30.27 in 6.2 mi SE 2.3 mph - N/A Fog Partly Cloudy
10:50 AM 55.4 °F - 53.6 °F 94% 30.27 in 6.2 mi SSE 5.8 mph - N/A   Haze
11:22 AM 59.0 °F - 53.6 °F 82% 30.27 in 6.2 mi SSE 5.8 mph - N/A   Partly Cloudy
11:50 AM 60.8 °F - 55.4 °F 82% 30.27 in 6.2 mi SSE 5.8 mph - N/A   Partly Cloudy
12:50 PM 64 °F - 56 °F 68% 30.26 in 19 mi SSE 5.8 mph - -   Partly Cloudy
12:50 PM 64.4 °F - 55.4 °F 73% 30.24 in 6.2 mi SSE 5.8 mph - N/A   Partly Cloudy
1:50 PM 66.2 °F - 57.2 °F 73% 30.21 in 6.2 mi South 8.1 mph - N/A   Partly Cloudy
2:50 PM 66.2 °F - 57.2 °F 73% 30.21 in 6.2 mi South 10.4 mph - N/A   Partly Cloudy
3:50 PM 67 °F - 58 °F 65% 30.20 in 9 mi South 10.4 mph - -   Scattered Clouds
3:50 PM 66.2 °F - 57.2 °F 73% 30.18 in 6.2 mi South 10.4 mph - N/A   Partly Cloudy
4:50 PM 64.4 °F - 57.2 °F 77% 30.18 in 6.2 mi South 10.4 mph - N/A   Partly Cloudy
5:50 PM 62.6 °F - 57.2 °F 82% 30.15 in 6.2 mi South 11.5 mph - N/A   Scattered Clouds
6:50 PM 61 °F - 57 °F 81% 30.17 in 7 mi South 6.9 mph - -   Scattered Clouds
6:50 PM 60.8 °F - 57.2 °F 88% 30.15 in 6.2 mi South 6.9 mph - N/A   Mostly Cloudy
7:30 PM 60.8 °F - 57.2 °F 88% 30.15 in 6.2 mi South 9.2 mph - N/A   Mostly Cloudy
7:50 PM 60.8 °F - 57.2 °F 88% 30.15 in 6.2 mi South 9.2 mph - N/A   Mostly Cloudy
8:50 PM 59.0 °F - 57.2 °F 94% 30.15 in 6.2 mi SSW 5.8 mph - N/A   Mostly Cloudy
9:50 PM 59 °F - 57 °F 89% 30.14 in 6 mi South 4.6 mph - -   Mostly Cloudy
9:50 PM 59.0 °F - 57.2 °F 94% 30.12 in 6.2 mi South 4.6 mph - N/A   Mostly Cloudy
10:50 PM 59.0 °F - 57.2 °F 94% 30.12 in 5.0 mi SW 3.5 mph - N/A   Haze
11:50 PM 59.0 °F - 57.2 °F 94% 30.12 in 5.0 mi South 2.3 mph - N/A   Haze